Retour au catalogue

COSMOS 1900 DEB

ActifLEO
NORAD 43501·DEBRIS·🇷🇺 Russia

Lancé Dec 12, 1987 depuis Baikonur Cosmodrome

Loading…

Prochains Passages (prochaines 24 heures)

TLE

FraisSource: Space-Track

Époque: Sep 14, 2026, 04:45 UTC

1 43501U 87101F   26257.19821528  .00000197  00000-0  64634-4 0  9992
2 43501  66.0818 111.4410 0029050  21.1371 339.0930 14.58611688249254

Suivez COSMOS 1900 DEB en temps réel avec AllMySat

Download on the App Store